Weather reports worldwide

Advertisment
Besancon, France (7288): temperature & dewpoint: 21.04.2017 01:00:00 - 27.04.2017 01:00:00 (CEST)Besancon, France (7288): temperature 5cm: 21.04.2017 01:00:00 - 27.04.2017 01:00:00 (CEST)Besancon, France (7288): temperature -20cm & temperature -100cm: 21.04.2017 01:00:00 - 27.04.2017 01:00:00 (CEST)Besancon, France (7288): wind speed & gusts: 21.04.2017 01:00:00 - 27.04.2017 01:00:00 (CEST)Besancon, France (7288): wind direction: 21.04.2017 01:00:00 - 27.04.2017 01:00:00 (CEST)Besancon, France (7288): reduced air pressure: 21.04.2017 01:00:00 - 27.04.2017 01:00:00 (CEST)Besancon, France (7288): visibility: 21.04.2017 01:00:00 - 27.04.2017 01:00:00 (CEST)Besancon, France (7288): sunshine duration: 21.04.2017 01:00:00 - 27.04.2017 01:00:00 (CEST)Besancon, France (7288): precipitation: 21.04.2017 01:00:00 - 27.04.2017 01:00:00 (CEST)
Date & Time tt [°C] td [°C] tt 5cm [°C] tt -20cm [°C] tt -100cm [°C] ff [km/h] ff [kn] fx [km/h] fx [kn] dd ppp [hPa] vv [km] sd [min] rr [mm]
27.04.2017 01:00:00 2,9 1,6 3,0 11,2 11,3 4 2 13 7 NNW 1016,2 - 0 0,0
27.04.2017 00:00:00 3,1 1,5 3,1 11,3 11,3 8 4 16 9 NW 1016,0 - 0 0,2
26.04.2017 23:00:00 3,5 1,7 3,4 11,3 11,3 8 4 15 8 NNW 1015,5 - 0 0,4
26.04.2017 22:00:00 3,6 2,0 3,6 11,3 11,3 5 3 20 11 N 1015,0 - 0 0,2
26.04.2017 21:00:00 3,7 2,1 3,7 11,4 11,3 9 5 26 14 N 1014,3 - 0 0,0
26.04.2017 20:00:00 4,1 2,0 4,1 11,4 11,3 13 7 26 14 N 1013,8 - 0 0,2
26.04.2017 19:00:00 5,0 3,0 5,4 11,4 11,3 12 6 22 12 N 1013,1 - 0 0,0
26.04.2017 18:00:00 5,3 3,3 5,5 11,3 11,3 11 6 22 12 N 1012,9 - 0 0,4
26.04.2017 17:00:00 5,9 3,1 6,5 11,3 11,3 6 4 16 9 NNW 1012,5 - 0 0,0
26.04.2017 16:00:00 6,4 1,7 7,7 11,3 11,3 3 2 13 7 NNE 1012,5 10 0 0,0
26.04.2017 15:00:00 5,8 1,9 7,1 11,3 11,3 7 4 14 7 N 1012,7 12 0 0,0
26.04.2017 14:00:00 6,4 2,3 8,9 11,2 11,3 2 1 15 8 E 1012,3 12 0 0,0
26.04.2017 13:00:00 6,0 2,5 8,0 11,3 11,3 8 5 17 9 NNE 1011,7 14 0 0,0
26.04.2017 12:00:00 5,2 1,5 9,9 11,3 11,3 7 4 14 8 N 1012,1 9 0 0,0
26.04.2017 11:00:00 4,3 1,8 7,3 11,3 11,2 6 3 14 8 N 1011,6 9 0 0,0
26.04.2017 10:00:00 3,7 1,4 4,7 11,4 11,2 4 2 14 8 NNE 1011,5 5 1 0,0
26.04.2017 09:00:00 2,6 1,0 3,1 11,5 11,2 7 4 13 7 N 1011,5 3,0 0 0,2
26.04.2017 08:00:00 2,0 0,8 2,3 11,6 11,2 8 4 16 9 N 1011,0 3,5 0 0,0
26.04.2017 07:00:00 1,8 0,6 2,0 11,8 11,3 5 3 14 7 N 1010,3 4,0 0 0,0
26.04.2017 06:00:00 1,9 0,7 2,0 11,9 11,3 8 4 23 12 N 1010,0 7 0 0,0
26.04.2017 05:00:00 1,9 0,6 2,1 12,0 11,2 13 7 23 12 N 1009,9 - 0 0,2
26.04.2017 04:00:00 2,7 1,4 2,8 12,2 11,2 7 4 21 11 N 1009,7 - 0 0,2
26.04.2017 03:00:00 2,7 1,5 2,8 12,3 11,2 7 4 15 8 NNE 1009,6 - 0 1,2
26.04.2017 02:00:00 3,0 1,8 2,8 12,4 11,2 6 3 16 8 N 1010,0 - 0 1,9
26.04.2017 01:00:00 2,9 1,7 2,8 12,6 11,2 3 1 11 6 NNW 1010,4 - 0 2,4
26.04.2017 00:00:00 3,0 1,7 3,1 12,7 11,2 4 2 18 10 NNE 1010,0 - 0 2,2
25.04.2017 23:00:00 3,5 2,0 3,5 12,8 11,2 8 4 29 15 N 1009,8 - 0 2,6
25.04.2017 22:00:00 4,2 2,7 4,2 12,9 11,2 9 5 25 14 N 1009,5 - 0 3,7
25.04.2017 21:00:00 5,1 3,8 5,1 13,0 11,2 13 7 29 16 N 1008,2 - 0 1,6
25.04.2017 20:00:00 6,2 4,8 6,3 13,1 11,2 11 6 29 15 N 1007,9 - 0 1,6
25.04.2017 19:00:00 7,3 5,8 7,4 13,1 11,2 13 7 26 14 N 1007,8 - 0 4,2
25.04.2017 18:00:00 9,4 7,5 9,4 13,1 11,2 2 1 16 9 SSW 1008,0 - 0 2,6
25.04.2017 17:00:00 9,9 7,7 9,7 13,1 11,1 8 4 16 9 SSW 1008,2 6 0 2,7
25.04.2017 16:00:00 10,4 8,3 10,3 13,1 11,2 9 5 27 14 SW 1009,2 8 0 3,0
25.04.2017 15:00:00 10,9 7,9 9,8 13,1 11,2 6 3 29 15 SW 1008,9 10 0 2,0
25.04.2017 14:00:00 13,5 5,9 13,7 13,0 11,1 7 4 22 12 WSW 1008,6 12 0 0,0
25.04.2017 13:00:00 12,8 5,0 13,5 13,0 11,1 9 5 23 12 WSW 1009,6 12 0 0,0
25.04.2017 12:00:00 13,0 5,9 14,9 12,9 11,1 7 4 22 12 W 1009,6 15 0 0,0
25.04.2017 11:00:00 12,7 5,8 15,3 13,0 11,1 8 4 29 16 WSW 1009,9 12 0 0,0
25.04.2017 10:00:00 12,5 5,6 12,7 12,9 11,1 9 5 24 13 WSW 1009,8 12 37 0,0
25.04.2017 09:00:00 11,3 5,2 10,9 13,0 11,1 10 5 22 12 WSW 1010,0 12 23 0,0
25.04.2017 08:00:00 11,0 6,9 9,4 13,1 11,1 8 4 18 10 SW 1009,9 10 0 0,0
25.04.2017 07:00:00 10,6 6,5 8,3 13,1 11,1 7 4 16 9 SW 1009,7 10 0 0,0
25.04.2017 06:00:00 10,5 6,3 8,3 13,2 11,1 3 2 9 5 SW 1009,5 12 0 0,0
25.04.2017 05:00:00 10,4 6,9 8,9 13,2 11,1 4 2 8 4 WSW 1009,7 - 0 0,0
25.04.2017 04:00:00 9,5 7,1 8,4 13,3 11,1 0 0 6 3 N 1010,2 - 0 0,8
25.04.2017 03:00:00 11,1 6,0 9,1 13,3 11,1 3 2 9 5 S 1010,2 - 0 0,2
25.04.2017 02:00:00 13,1 4,3 11,7 13,4 11,1 3 1 13 7 W 1010,3 - 0 0,0
25.04.2017 01:00:00 14,1 5,4 11,9 13,4 11,1 7 4 15 8 SSW 1010,5 - 0 0,0
25.04.2017 00:00:00 13,5 5,1 6,2 13,4 11,1 8 5 18 10 SW 1010,6 - 0 0,0
24.04.2017 23:00:00 12,1 5,0 7,2 13,5 11,1 0 0 3 2 N 1010,7 - 0 0,0
24.04.2017 22:00:00 13,5 4,9 8,9 13,4 11,1 0 0 3 2 N 1010,6 - 0 0,0
24.04.2017 21:00:00 15,0 4,1 9,0 13,3 11,1 0 0 10 5 N 1010,4 - 7 0,0
24.04.2017 20:00:00 17,9 4,1 15,6 13,1 11,1 4 2 17 9 WSW 1010,4 - 45 0,0
24.04.2017 19:00:00 19,6 4,5 21,2 12,9 11,1 6 3 18 10 WSW 1010,8 - 60 0,0
24.04.2017 18:00:00 19,9 4,0 24,8 12,7 11,1 9 5 24 13 W 1011,1 - 60 0,0
24.04.2017 17:00:00 19,8 3,5 26,1 12,4 11,1 10 6 23 12 W 1011,8 30 60 0,0
24.04.2017 16:00:00 20,0 2,8 26,6 12,1 11,1 9 5 28 15 WSW 1012,6 - 60 0,0
24.04.2017 15:00:00 19,1 2,9 28,1 11,9 11,1 8 5 27 15 WSW 1013,7 30 60 0,0
24.04.2017 14:00:00 17,3 2,5 27,2 11,7 11,1 9 5 27 15 WSW 1015,0 30 60 0,0
24.04.2017 13:00:00 16,2 0,7 27,3 11,5 11,1 8 4 18 10 W 1015,9 25 60 0,0
24.04.2017 12:00:00 14,8 2,0 22,6 11,5 11,1 7 4 18 10 WSW 1016,8 25 60 0,0
24.04.2017 11:00:00 12,4 1,1 19,8 11,5 11,1 8 4 18 10 SW 1017,6 25 60 0,0
24.04.2017 10:00:00 10,4 -0,4 15,3 11,6 11,1 4 2 10 6 S 1018,2 - 60 0,0
24.04.2017 09:00:00 6,9 -1,0 2,6 11,7 11,0 0 0 7 4 N 1019,1 25 60 0,0
24.04.2017 08:00:00 3,7 -2,5 -1,8 11,9 11,1 0 0 7 4 N 1019,5 20 51 0,0
24.04.2017 07:00:00 2,8 -2,7 -2,4 12,0 11,1 0 0 7 4 N 1019,3 20 0 0,0
24.04.2017 06:00:00 3,4 -3,2 -2,0 12,2 11,1 0 0 9 5 N 1019,3 20 0 0,0
24.04.2017 05:00:00 3,9 -3,4 -1,0 12,3 11,1 0 0 9 5 N 1019,4 - 0 0,0
24.04.2017 04:00:00 4,6 -3,4 0,0 12,4 11,1 2 1 13 7 NNE 1019,6 - 0 0,0
24.04.2017 03:00:00 4,8 -3,5 0,7 12,5 11,1 4 2 10 6 N 1020,1 - 0 0,0
24.04.2017 02:00:00 5,5 -3,6 0,9 12,6 11,0 0 0 11 6 N 1020,5 - 0 0,0
24.04.2017 01:00:00 5,7 -2,9 0,7 12,7 11,1 3 1 12 6 NNE 1021,1 - 0 0,0
24.04.2017 00:00:00 6,6 -2,1 2,4 12,7 11,1 5 3 16 9 NNE 1021,5 - 0 0,0
23.04.2017 23:00:00 7,3 -1,9 3,1 12,8 11,1 4 2 16 9 NNE 1021,7 - 0 0,0
23.04.2017 22:00:00 9,5 -2,2 6,1 12,8 11,1 9 5 23 12 NNE 1021,7 - 0 0,0
23.04.2017 21:00:00 10,8 -1,9 7,9 12,7 11,1 9 5 24 13 NNE 1021,3 - 19 0,0
23.04.2017 20:00:00 13,0 -1,4 12,4 12,6 11,1 17 9 29 16 N 1020,7 - 60 0,0
23.04.2017 19:00:00 14,7 -0,2 18,2 12,4 11,1 13 7 24 13 N 1020,4 - 60 0,0
23.04.2017 18:00:00 15,3 -0,1 21,7 12,3 11,1 11 6 29 16 N 1020,5 - 60 0,0
23.04.2017 17:00:00 15,3 0,3 24,1 12,0 11,1 9 5 29 16 N 1020,8 - 60 0,0
23.04.2017 16:00:00 14,7 -0,2 23,5 11,8 11,1 12 6 29 15 N 1021,3 25 60 0,0
23.04.2017 15:00:00 14,3 -0,2 26,2 11,6 11,1 13 7 27 15 N 1022,0 20 60 0,0
23.04.2017 14:00:00 13,8 -0,3 24,8 11,5 11,1 12 6 32 17 N 1022,5 - 60 0,0
23.04.2017 13:00:00 12,7 0,4 24,2 11,4 11,1 15 8 27 14 N 1023,2 - 60 0,0
23.04.2017 12:00:00 12,4 0,8 17,8 11,3 11,1 7 4 23 12 NNE 1023,7 20 54 0,0
23.04.2017 11:00:00 11,6 2,3 14,2 11,3 11,1 5 3 25 13 NE 1024,0 - 44 0,0
23.04.2017 10:00:00 9,7 2,8 12,7 11,4 11,1 6 4 22 12 NNE 1024,2 - 60 0,0
23.04.2017 09:00:00 7,7 2,8 3,3 11,6 11,1 9 5 20 11 NNE 1024,7 - 60 0,0
23.04.2017 08:00:00 4,4 2,4 -1,3 11,7 11,1 4 2 11 6 NNE 1025,1 15 42 0,0
23.04.2017 07:00:00 2,8 1,2 -1,8 11,8 11,1 3 1 10 5 N 1025,0 15 0 0,0
23.04.2017 06:00:00 3,2 1,2 -0,8 11,8 11,1 3 1 9 5 NNE 1024,6 - 0 0,0
23.04.2017 05:00:00 4,8 2,3 0,5 12,0 11,1 3 2 10 6 NNE 1024,4 - 0 0,0
23.04.2017 04:00:00 5,8 3,0 1,0 12,0 11,1 0 0 9 5 N 1024,3 - 0 0,0
23.04.2017 03:00:00 6,7 3,1 2,2 12,0 11,1 0 0 11 6 N 1024,2 - 0 0,0
23.04.2017 02:00:00 8,0 3,8 4,4 12,1 11,1 7 4 16 9 N 1024,5 - 0 0,0
23.04.2017 01:00:00 9,2 3,8 6,7 12,1 11,1 7 4 14 7 N 1024,4 - 0 0,0
23.04.2017 00:00:00 10,1 3,6 8,6 12,2 11,1 6 4 20 11 NNE 1024,3 - 0 0,0
22.04.2017 23:00:00 10,9 3,0 8,4 12,1 11,1 10 6 19 10 N 1024,2 - 0 0,0
22.04.2017 22:00:00 11,2 3,0 9,8 12,1 11,1 2 1 14 8 NNE 1024,1 - 0 0,0
22.04.2017 21:00:00 12,0 2,7 10,9 12,0 11,1 9 5 18 10 N 1023,6 - 0 0,0
22.04.2017 20:00:00 12,6 2,7 12,2 11,9 11,1 11 6 23 13 N 1023,3 - 0 0,0
22.04.2017 19:00:00 13,5 2,4 14,1 11,8 11,1 13 7 23 13 N 1023,2 - 0 0,0
22.04.2017 18:00:00 14,6 2,8 17,1 11,6 11,1 14 7 26 14 N 1023,0 - 7 0,0
22.04.2017 17:00:00 15,0 1,8 18,7 11,4 11,1 9 5 23 12 N 1023,2 - 20 0,0
22.04.2017 16:00:00 16,0 1,7 20,7 11,2 11,1 10 5 20 11 N 1023,6 20 24 0,0
22.04.2017 15:00:00 15,3 2,1 19,9 11,0 11,1 6 3 23 13 NW 1024,3 20 19 0,0
22.04.2017 14:00:00 15,0 2,2 19,3 10,9 11,1 8 5 20 11 WNW 1024,8 20 19 0,0
22.04.2017 13:00:00 14,3 1,9 18,8 10,8 11,1 12 6 23 12 N 1025,8 - 15 0,0
22.04.2017 12:00:00 14,6 1,5 15,7 10,7 11,1 8 4 24 13 NW 1026,0 20 40 0,0
22.04.2017 11:00:00 14,0 1,3 21,8 10,7 11,1 8 4 21 12 N 1026,3 20 60 0,0
22.04.2017 10:00:00 11,9 0,0 14,9 10,8 11,1 3 1 7 4 SE 1026,8 20 60 0,0
22.04.2017 09:00:00 6,0 -1,0 0,4 10,9 11,1 0 0 3 1 N 1027,9 - 60 0,0
22.04.2017 08:00:00 1,8 -2,3 -2,6 11,1 11,1 0 0 3 2 N 1028,4 20 42 0,0
22.04.2017 07:00:00 1,2 -2,6 -3,7 11,1 11,1 3 1 5 3 NNE 1028,1 20 0 0,0
22.04.2017 06:00:00 0,9 -2,7 -3,6 11,3 11,1 0 0 5 3 N 1028,1 20 0 0,0
22.04.2017 05:00:00 1,3 -2,5 -3,2 11,4 11,1 0 0 4 2 N 1028,3 - 0 0,0
22.04.2017 04:00:00 1,9 -2,4 -2,9 11,5 11,1 0 0 5 3 N 1028,3 - 0 0,0
22.04.2017 03:00:00 2,5 -2,0 -2,4 11,6 11,1 0 0 8 4 N 1028,5 - 0 0,0
22.04.2017 02:00:00 4,0 -2,4 -1,8 11,7 11,1 3 1 4 2 NNE 1028,7 - 0 0,0
22.04.2017 01:00:00 5,7 -2,7 -1,2 11,8 11,1 0 0 9 5 N 1028,9 - 0 0,0
22.04.2017 00:00:00 5,2 -2,4 -1,0 11,8 11,1 3 2 7 4 NNE 1029,0 - 0 0,0
21.04.2017 23:00:00 6,9 -2,0 0,6 11,8 11,1 3 1 4 2 NNE 1029,2 - 0 0,0
21.04.2017 22:00:00 9,4 -2,6 2,5 11,8 11,1 0 0 5 3 N 1028,8 - 0 0,0
21.04.2017 21:00:00 12,0 -4,2 5,8 11,7 11,2 4 2 13 7 NNW 1028,2 - 18 0,0
21.04.2017 20:00:00 14,7 -5,2 13,6 11,6 11,1 6 4 19 10 NNW 1027,7 - 60 0,0
21.04.2017 19:00:00 16,1 -5,1 20,3 11,4 11,2 7 4 20 11 N 1027,7 - 60 0,0
21.04.2017 18:00:00 16,3 -7,4 22,8 11,2 11,1 10 5 23 12 N 1027,8 - 60 0,0
21.04.2017 17:00:00 16,5 -7,9 24,7 10,9 11,2 8 5 28 15 NNE 1028,0 20 60 0,0
21.04.2017 16:00:00 16,0 -9,1 23,7 10,7 11,2 9 5 28 15 N 1028,8 20 60 0,0
21.04.2017 15:00:00 15,8 -7,2 26,9 10,5 11,2 7 4 29 16 NNE 1029,4 - 60 0,0
21.04.2017 14:00:00 14,2 -7,3 26,8 10,3 11,2 12 6 24 13 NNE 1030,5 - 60 0,0
21.04.2017 13:00:00 13,3 -6,3 24,7 10,2 11,2 10 5 27 15 NNE 1031,0 20 60 0,0
21.04.2017 12:00:00 11,9 -7,5 21,6 10,2 11,2 10 5 26 14 NNE 1031,6 20 60 0,0
21.04.2017 11:00:00 10,3 -6,5 17,9 10,2 11,2 11 6 23 12 N 1031,9 - 60 0,0
21.04.2017 10:00:00 8,0 -6,2 10,3 10,3 11,2 8 5 18 10 NNE 1031,9 20 60 0,0
21.04.2017 09:00:00 4,9 -5,8 0,4 10,5 11,2 6 3 14 8 NNE 1032,6 - 60 0,0
21.04.2017 08:00:00 1,0 -5,9 -3,6 10,6 11,2 3 1 13 7 ENE 1032,8 20 44 0,0
21.04.2017 07:00:00 -0,6 -6,2 -4,9 10,7 11,2 3 1 14 8 NNE 1032,7 20 0 0,0
21.04.2017 06:00:00 -0,3 -5,9 -4,7 10,8 11,2 5 3 14 7 NNE 1032,5 15 0 0,0
21.04.2017 05:00:00 0,3 -5,5 -4,7 10,9 11,2 0 0 11 6 N 1032,5 - 0 0,0
21.04.2017 04:00:00 0,6 -5,9 -4,0 11,1 11,3 3 1 13 7 NE 1032,7 - 0 0,0
21.04.2017 03:00:00 0,5 -5,7 -4,2 11,2 11,3 4 2 11 6 NNE 1033,1 - 0 0,0
21.04.2017 02:00:00 1,2 -5,7 -3,4 11,2 11,2 2 1 10 5 NNE 1033,2 - 0 0,0
21.04.2017 01:00:00 3,1 -5,6 -0,3 11,3 11,3 5 3 19 11 NNE 1033,3 - 0 0,0

tt = temperature
td = dewpoint
tt 5cm = temperature 5cm
tt -20cm = temperature -20cm
tt -100cm = temperature -100cm
ff = wind speed
fx = gusts
dd = wind direction
ppp = reduced air pressure
vv = visibility
sd = sunshine duration
rr = precipitation

Next stations